Voltar ao catálogo

SL-16 DEB

AtivoLEO
NORAD 29100·DEBRIS·🇷🇺 Russia

Lançado Mar 26, 1993 de Baikonur Cosmodrome

Loading…

Próximas Passagens (próximas 24 horas)

TLE

AtualizadoSource: Space-Track

Época: Sep 14, 2026, 09:14 UTC

1 29100U 93016AP  26257.38531974  .00000300  00000-0  18453-3 0  9990
2 29100  70.7249 243.8693 0076915 308.2992  51.1226 14.12400166244012

Acompanhe SL-16 DEB em tempo real com AllMySat

Download on the App Store